Greer, SC

10:31 AM EDT on July 25, 2016 (GMT -0400)
Greenville-Spartanburg International

Weather History for KGSP - April, 2013

Change the Weather History Date:

Thursday, April 18, 2013

  Actual Average Record
Temperature  
Mean Temperature 70 °F 61 °F  
Max Temperature 80 °F 73 °F 89 °F (2002)
Min Temperature 59 °F 49 °F 28 °F (1905)
Degree Days  
Heating Degree Days 0 5  
Month to date heating degree days 80 124  
Since 1 July heating degree days 2820 2957  
Cooling Degree Days 5 1  
Month to date cooling degree days 35 18  
Year to date cooling degree days 37 26  
Growing Degree Days 20 (Base 50)    
Moisture  
Dew Point 60 °F    
Average Humidity 74    
Maximum Humidity 100    
Minimum Humidity 48    
Precipitation  
Precipitation T in 0.11 in 3.01 in (1969)
Month to date precipitation 2.15 2.01  
Year to date precipitation 14.82 14.32  
Snow  
Snow 0.00 in 0.00 in 0.10 in (1983)
Month to date snowfall 0.0 0.0  
Since 1 July snowfall 2.0 4.7  
Snow Depth 0.00 in    
Sea Level Pressure  
Sea Level Pressure 30.07 in    
Wind  
Wind Speed 5 mph (SSE)    
Max Wind Speed 14 mph    
Max Gust Speed 17 mph    
Visibility 6 miles    
Events      
T = Trace of Precipitation, MM = Missing Value Source: NWS Daily Summary

Daily Weather History Graph

Daily Weather History Graph

Search for Another Location

Airport or City:

Trip Planner

Search our weather history database for the weather conditions in past years. The results will help you decide how hot, cold, wet, or windy it might be!

Date:

Astronomy

Apr. 18, 2013 Rise Set
Actual Time 6:52 AM EDT 8:03 PM EDT
Civil Twilight 6:26 AM EDT 8:30 PM EDT
Nautical Twilight 5:55 AM EDT 9:01 PM EDT
Astronomical Twilight 5:23 AM EDT 9:33 PM EDT
Moon 1:06 PM EDT (4/18) 2:14 AM EDT (4/18)
Length of Visible Light 14h 03m
Length of Day
13h 10m
First Quarter, 51% of the Moon is Illuminated
Apr 18
First Quarter
Apr 25
Full
May 2
Last Quarter
May 9
New
May 18
First Quarter

Hourly Weather History & Observations

Time (EDT) Temp. Dew Point Humidity Pressure Visibility Wind Dir Wind Speed Gust Speed Precip Events Conditions
12:53 AM 61.0 °F 61.0 °F 100% 30.10 in 9.0 mi Calm Calm - N/A   Mostly Cloudy
1:53 AM 60.1 °F 59.0 °F 96% 30.08 in 2.0 mi Calm Calm - N/A   Partly Cloudy
2:09 AM 59.0 °F 59.0 °F 100% 30.09 in 2.5 mi Calm Calm - N/A   Partly Cloudy
2:27 AM 59.0 °F 59.0 °F 100% 30.09 in 1.2 mi Calm Calm - N/A   Partly Cloudy
2:36 AM 59.0 °F 59.0 °F 100% 30.09 in 2.5 mi Calm Calm - N/A   Partly Cloudy
2:43 AM 59.0 °F 59.0 °F 100% 30.09 in 3.0 mi Calm Calm - N/A   Partly Cloudy
2:51 AM 60.8 °F 59.0 °F 94% 30.10 in 2.0 mi Calm Calm - N/A   Clear
2:53 AM 60.1 °F 59.0 °F 96% 30.07 in 1.5 mi Calm Calm - N/A   Partly Cloudy
2:57 AM 60.8 °F 59.0 °F 94% 30.10 in 1.0 mi Calm Calm - N/A   Mist
3:10 AM 60.8 °F 59.0 °F 94% 30.10 in 0.8 mi Calm Calm - N/A   Mist
3:17 AM 60.8 °F 59.0 °F 94% 30.10 in 1.2 mi Calm Calm - N/A   Partly Cloudy
3:21 AM 60.8 °F 59.0 °F 94% 30.10 in 2.0 mi Calm Calm - N/A   Partly Cloudy
3:38 AM 60.8 °F 60.8 °F 100% 30.11 in 3.0 mi Calm Calm - N/A   Clear
3:45 AM 60.8 °F 60.8 °F 100% 30.11 in 1.8 mi Calm Calm - N/A   Partly Cloudy
3:47 AM 59.0 °F 59.0 °F 100% 30.12 in 1.0 mi Calm Calm - N/A   Mist
3:53 AM 60.1 °F 59.0 °F 96% 30.10 in 0.8 mi Calm Calm - N/A   Mist
3:56 AM 60.8 °F 59.0 °F 94% 30.12 in 1.0 mi Calm Calm - N/A   Mist
4:03 AM 60.8 °F 59.0 °F 94% 30.12 in 2.0 mi Calm Calm - N/A   Mostly Cloudy
4:13 AM 59.0 °F 59.0 °F 100% 30.12 in 2.0 mi Calm Calm - N/A   Scattered Clouds
4:17 AM 59.0 °F 59.0 °F 100% 30.12 in 1.5 mi Calm Calm - N/A   Mostly Cloudy
4:25 AM 60.8 °F 59.0 °F 94% 30.12 in 3.0 mi Calm Calm - N/A   Scattered Clouds
4:53 AM 60.1 °F 59.0 °F 96% 30.11 in 5.0 mi Calm Calm - N/A   Scattered Clouds
5:53 AM 60.1 °F 59.0 °F 96% 30.11 in 7.0 mi Calm Calm - N/A   Mostly Cloudy
6:53 AM 60.1 °F 59.0 °F 96% 30.12 in 7.0 mi Calm Calm - N/A   Overcast
7:53 AM 61.0 °F 60.1 °F 97% 30.12 in 9.0 mi Variable 5.8 mph - N/A   Overcast
8:53 AM 63.0 °F 61.0 °F 93% 30.12 in 10.0 mi SSE 4.6 mph - N/A   Overcast
9:53 AM 66.0 °F 60.1 °F 81% 30.12 in 10.0 mi SE 5.8 mph - N/A   Overcast
10:53 AM 68.0 °F 62.1 °F 81% 30.13 in 10.0 mi SSE 5.8 mph - N/A   Overcast
11:53 AM 71.1 °F 60.1 °F 68% 30.12 in 10.0 mi SSE 9.2 mph - N/A   Mostly Cloudy
12:53 PM 73.0 °F 60.1 °F 64% 30.10 in 10.0 mi SSE 10.4 mph 16.1 mph N/A   Mostly Cloudy
1:53 PM 75.0 °F 60.1 °F 60% 30.08 in 10.0 mi SSE 9.2 mph - N/A   Mostly Cloudy
2:53 PM 77.0 °F 59.0 °F 54% 30.05 in 10.0 mi SSE 9.2 mph - N/A   Overcast
3:53 PM 75.9 °F 59.0 °F 56% 30.03 in 10.0 mi SSW 9.2 mph - N/A   Overcast
4:53 PM 79.0 °F 57.9 °F 48% 29.98 in 10.0 mi South 5.8 mph - N/A   Partly Cloudy
5:53 PM 77.0 °F 59.0 °F 54% 29.97 in 10.0 mi SSE 6.9 mph - N/A   Overcast
6:53 PM 75.0 °F 62.1 °F 64% 29.96 in 10.0 mi SSE 10.4 mph - N/A   Overcast
7:53 PM 72.0 °F 63.0 °F 73% 29.96 in 10.0 mi SE 5.8 mph - 0.00 in   Mostly Cloudy
8:53 PM 68.0 °F 63.0 °F 84% 29.97 in 10.0 mi SE 4.6 mph - N/A   Partly Cloudy
9:53 PM 64.9 °F 63.0 °F 93% 29.97 in 10.0 mi SE 4.6 mph - N/A   Clear
10:53 PM 66.9 °F 63.0 °F 87% 29.96 in 10.0 mi SSE 9.2 mph - N/A   Mostly Cloudy
11:53 PM 66.9 °F 63.0 °F 87% 29.95 in 10.0 mi SSE 6.9 mph - N/A   Scattered Clouds